Location: Key Biscayne
(25.6930°N, 80.1630°W)
Time: 01:48:26
(UTC-04:00)

CZ-2D R/B - Visible Passes

Search period start: 28 July 2015 00:00
Search period end: 07 August 2015 00:00
Orbit: 529 x 546 km, 97.6° (Epoch: 27 July)

Date Brightness Start Highest point End Pass type
(mag) Time Alt. Az. Time Alt. Az. Time Alt. Az.
28 Jul 3.7 21:12:16 10° S 21:16:09 63° W 21:20:02 10° NNW visible
29 Jul 3.3 21:04:12 10° S 21:08:07 83° W 21:12:03 10° NNW visible
30 Jul 3.2 20:56:12 10° SSE 21:00:06 74° ENE 21:04:01 10° N visible
31 Jul 3.4 20:48:15 10° SSE 20:52:05 56° ENE 20:55:55 10° N visible
01 Aug 3.8 20:40:22 10° SSE 20:44:03 42° ENE 20:47:47 10° N visible
02 Aug 4.1 20:32:33 10° SE 20:36:02 32° ENE 20:39:35 10° N visible
02 Aug 6.4 22:09:39 10° WSW 22:10:41 11° W 22:11:26 10° W visible
03 Aug 6.1 22:00:22 10° SW 22:02:34 14° W 22:04:32 10° WNW visible
04 Aug 5.9 21:51:41 10° SW 21:54:27 18° W 21:57:05 10° NW visible
05 Aug 5.5 21:43:10 10° SSW 21:46:21 23° W 21:49:27 10° NW visible
06 Aug 5.1 21:34:47 10° SSW 21:38:15 29° W 21:41:41 10° NW visible
